| time (UTC) | temp F | wind direction | speed knots | gust knots | rain 1hr in | rain 24hr in | rain mn in | humidity % | barometer mb |
| 20260506212059 | 44 | 20 | 2.6 | 7.8 | 0.04 | 0.78 | 0.78 | 94 | 1005.8 |
| 20260506211557 | 45 | 5 | 1.7 | 7.8 | 0.04 | 0.78 | 0.78 | 94 | 1005.8 |
| 20260506211058 | 45 | 24 | 2.6 | 7.8 | 0.04 | 0.78 | 0.78 | 93 | 1005.8 |
| 20260506210558 | 45 | 360 | 3.5 | 7.8 | 0.06 | 0.78 | 0.78 | 93 | 1005.7 |
| 20260506210128 | 45 | 355 | 2.6 | 7.8 | 0.06 | 0.78 | 0.78 | 93 | 1005.7 |
| 20260506205557 | 45 | 5 | 3.5 | 8.7 | 0.07 | 0.82 | 0.78 | 93 | 1005.7 |
| 20260506205057 | 45 | 5 | 4.3 | 8.7 | 0.08 | 0.82 | 0.78 | 94 | 1005.6 |
| 20260506204557 | 45 | 355 | 3.5 | 8.7 | 0.08 | 0.82 | 0.78 | 93 | 1005.6 |
| 20260506204056 | 45 | 65 | 3.5 | 9.6 | 0.09 | 0.82 | 0.78 | 93 | 1005.7 |
| 20260506203557 | 45 | 42 | 4.3 | 9.6 | 0.10 | 0.82 | 0.78 | 94 | 1005.6 |
| 20260506203102 | 45 | 30 | 2.6 | 7.0 | 0.09 | 0.81 | 0.77 | 94 | 1005.8 |
| 20260506202558 | 45 | 30 | 2.6 | 9.6 | 0.09 | 0.80 | 0.76 | 93 | 1005.8 |
| 20260506202058 | 45 | 38 | 3.5 | 9.6 | 0.07 | 0.78 | 0.74 | 93 | 1005.7 |
| 20260506201557 | 45 | 5 | 3.5 | 9.6 | 0.07 | 0.78 | 0.74 | 93 | 1005.7 |
| 20260506201058 | 45 | 355 | 3.5 | 7.8 | 0.07 | 0.78 | 0.74 | 93 | 1005.6 |
| 20260506200557 | 45 | 31 | 2.6 | 6.1 | 0.06 | 0.76 | 0.72 | 94 | 1005.6 |
| 20260506200146 | 45 | 288 | 1.7 | 7.0 | 0.06 | 0.76 | 0.72 | 94 | 1005.7 |
| 20260506195557 | 45 | 5 | 2.6 | 7.8 | 0.05 | 0.75 | 0.71 | 93 | 1005.8 |
| 20260506195057 | 45 | 342 | 2.6 | 8.7 | 0.04 | 0.74 | 0.70 | 94 | 1005.6 |
| 20260506194607 | 45 | 43 | 2.6 | 8.7 | 0.04 | 0.74 | 0.70 | 93 | 1005.6 |
| 20260506194058 | 45 | 360 | 4.3 | 7.8 | 0.04 | 0.73 | 0.69 | 93 | 1005.5 |
| 20260506193558 | 46 | 27 | 2.6 | 7.8 | 0.03 | 0.72 | 0.68 | 93 | 1005.5 |
| 20260506193057 | 46 | 360 | 3.5 | 7.8 | 0.03 | 0.72 | 0.68 | 93 | 1005.6 |
| 20260506192557 | 46 | 35 | 3.5 | 7.8 | 0.02 | 0.71 | 0.67 | 93 | 1005.7 |
| 20260506192057 | 46 | 10 | 1.7 | 8.7 | 0.02 | 0.71 | 0.67 | 94 | 1005.7 |
| 20260506191555 | 46 | 22 | 4.3 | 8.7 | 0.02 | 0.71 | 0.67 | 94 | 1005.6 |
| 20260506191058 | 46 | 30 | 3.5 | 9.6 | 0.02 | 0.71 | 0.67 | 93 | 1005.6 |
| 20260506190558 | 46 | 18 | 2.6 | 9.6 | 0.01 | 0.70 | 0.66 | 93 | 1005.8 |
| 20260506190057 | 46 | 34 | 3.5 | 9.6 | 0.02 | 0.70 | 0.66 | 93 | 1005.7 |
| 20260506185557 | 46 | 55 | 2.6 | 7.8 | 0.02 | 0.70 | 0.66 | 93 | 1005.7 |
| 20260506185058 | 47 | 71 | 3.5 | 8.7 | 0.03 | 0.70 | 0.66 | 93 | 1005.6 |
| 20260506184601 | 47 | 17 | 2.6 | 8.7 | 0.04 | 0.70 | 0.66 | 93 | 1005.5 |
| 20260506184057 | 47 | 57 | 4.3 | 7.0 | 0.04 | 0.69 | 0.65 | 93 | 1005.5 |
| 20260506183558 | 48 | 327 | 0.9 | 5.2 | 0.05 | 0.69 | 0.65 | 93 | 1005.7 |
| 20260506183102 | 49 | 10 | 2.6 | 6.1 | 0.06 | 0.69 | 0.65 | 93 | 1005.6 |
| 20260506182557 | 49 | 5 | 3.5 | 7.8 | 0.07 | 0.69 | 0.65 | 93 | 1005.6 |
| 20260506182100 | 50 | 68 | 2.6 | 7.8 | 0.08 | 0.69 | 0.65 | 93 | 1005.4 |
| 20260506181555 | 50 | 36 | 4.3 | 7.8 | 0.08 | 0.69 | 0.65 | 93 | 1005.6 |
| 20260506181058 | 51 | 67 | 3.5 | 7.8 | 0.08 | 0.69 | 0.65 | 93 | 1005.6 |
| 20260506180602 | 52 | 21 | 2.6 | 5.2 | 0.08 | 0.69 | 0.65 | 94 | 1005.8 |
| 20260506180105 | 52 | 64 | 2.6 | 7.8 | 0.08 | 0.68 | 0.64 | 93 | 1005.9 |
| 20260506175558 | 52 | 360 | 0.9 | 7.8 | 0.09 | 0.68 | 0.64 | 93 | 1006.0 |
| 20260506175100 | 53 | 34 | 0.9 | 7.8 | 0.09 | 0.67 | 0.63 | 93 | 1006.1 |
| 20260506174601 | 55 | 301 | 0.9 | 3.5 | 0.08 | 0.66 | 0.62 | 94 | 1006.1 |
| 20260506174058 | 55 | 259 | 1.7 | 3.5 | 0.08 | 0.65 | 0.61 | 94 | 1006.1 |
| 20260506173559 | 55 | 0 | 0.0 | 3.5 | 0.08 | 0.64 | 0.60 | 94 | 1006.2 |
| 20260506173122 | 55 | 138 | 0.0 | 2.6 | 0.08 | 0.63 | 0.58 | 94 | 1006.1 |
| 20260506172600 | 55 | 0 | 0.0 | 2.6 | 0.08 | 0.62 | 0.58 | 94 | 1006.1 |
| 20260506172057 | 55 | 88 | 0.0 | 3.5 | 0.08 | 0.61 | 0.57 | 94 | 1006.1 |
| 20260506171602 | 55 | 267 | 0.9 | 3.5 | 0.09 | 0.61 | 0.57 | 94 | 1006.2 |
| 20260506171056 | 55 | 103 | 0.0 | 4.3 | 0.10 | 0.61 | 0.57 | 94 | 1006.2 |
| 20260506170559 | 55 | 0 | 0.0 | 4.3 | 0.10 | 0.61 | 0.57 | 94 | 1006.4 |
| 20260506170058 | 55 | 221 | 0.9 | 2.6 | 0.10 | 0.60 | 0.56 | 94 | 1006.3 |
| 20260506165558 | 54 | 270 | 0.0 | 4.3 | 0.09 | 0.58 | 0.55 | 94 | 1006.4 |
| 20260506165056 | 55 | 180 | 0.0 | 4.3 | 0.08 | 0.58 | 0.54 | 94 | 1006.3 |
| 20260506164559 | 55 | 0 | 0.0 | 2.6 | 0.09 | 0.58 | 0.54 | 94 | 1006.3 |
| 20260506164058 | 55 | 60 | 0.0 | 2.6 | 0.08 | 0.57 | 0.52 | 94 | 1006.3 |
| 20260506163557 | 55 | 0 | 0.0 | 1.7 | 0.08 | 0.56 | 0.52 | 94 | 1006.3 |
| 20260506163103 | 55 | 0 | 0.0 | 1.7 | 0.08 | 0.55 | 0.51 | 94 | 1006.4 |
| 20260506162558 | 54 | 0 | 0.0 | 1.7 | 0.08 | 0.54 | 0.50 | 94 | 1006.5 |
| 20260506162055 | 54 | 0 | 0.0 | 3.5 | 0.07 | 0.52 | 0.49 | 94 | 1006.5 |
| 20260506161559 | 54 | 0 | 0.0 | 7.0 | 0.07 | 0.52 | 0.48 | 94 | 1006.6 |
| 20260506161058 | 54 | 198 | 0.9 | 7.0 | 0.06 | 0.51 | 0.47 | 94 | 1006.7 |
| 20260506160556 | 54 | 216 | 0.9 | 7.0 | 0.07 | 0.51 | 0.47 | 94 | 1006.8 |
| 20260506160108 | 54 | 154 | 0.9 | 5.2 | 0.07 | 0.50 | 0.46 | 94 | 1006.8 |
| 20260506155558 | 54 | 0 | 0.0 | 2.6 | 0.08 | 0.50 | 0.46 | 94 | 1006.9 |
| 20260506155056 | 54 | 0 | 0.0 | 3.5 | 0.09 | 0.50 | 0.46 | 94 | 1006.9 |
| 20260506154600 | 54 | 0 | 0.0 | 3.5 | 0.09 | 0.49 | 0.45 | 94 | 1007.0 |
| 20260506154056 | 54 | 214 | 1.7 | 4.3 | 0.09 | 0.49 | 0.45 | 94 | 1007.1 |
| 20260506153555 | 53 | 0 | 0.0 | 4.3 | 0.08 | 0.48 | 0.44 | 94 | 1007.1 |
| 20260506153058 | 53 | 220 | 0.0 | 2.6 | 0.08 | 0.47 | 0.43 | 94 | 1007.1 |
| 20260506152556 | 54 | 236 | 0.0 | 2.6 | 0.07 | 0.46 | 0.42 | 94 | 1007.1 |
| 20260506152059 | 53 | 238 | 0.0 | 2.6 | 0.07 | 0.46 | 0.42 | 94 | 1007.1 |
| 20260506151556 | 53 | 0 | 0.0 | 1.7 | 0.07 | 0.45 | 0.41 | 94 | 1007.1 |
| 20260506151058 | 53 | 81 | 0.0 | 3.5 | 0.07 | 0.45 | 0.41 | 94 | 1007.3 |
| 20260506150557 | 53 | 0 | 0.0 | 3.5 | 0.07 | 0.44 | 0.40 | 94 | 1007.4 |
| 20260506145602 | 53 | 211 | 0.0 | 1.7 | 0.07 | 0.42 | 0.38 | 94 | 1007.5 |
| 20260506145058 | 53 | 234 | 0.0 | 1.7 | 0.06 | 0.41 | 0.37 | 94 | 1007.5 |
| 20260506144557 | 52 | 0 | 0.0 | 2.6 | 0.06 | 0.40 | 0.36 | 93 | 1007.5 |
| 20260506144056 | 52 | 0 | 0.0 | 2.6 | 0.06 | 0.40 | 0.36 | 93 | 1007.6 |
| 20260506143556 | 52 | 234 | 0.0 | 2.6 | 0.07 | 0.40 | 0.36 | 94 | 1007.7 |
| 20260506143058 | 52 | 234 | 0.0 | 3.5 | 0.06 | 0.39 | 0.35 | 93 | 1007.6 |
| 20260506142555 | 52 | 234 | 1.7 | 3.5 | 0.06 | 0.39 | 0.35 | 93 | 1007.6 |
| 20260506142057 | 52 | 244 | 0.0 | 0.0 | 0.07 | 0.39 | 0.35 | 93 | 1007.6 |
| 20260506141556 | 52 | 0 | 0.0 | 0.0 | 0.06 | 0.38 | 0.34 | 93 | 1007.7 |
| 20260506141058 | 52 | 0 | 0.0 | 0.0 | 0.07 | 0.38 | 0.34 | 94 | 1007.6 |
| 20260506140600 | 52 | 0 | 0.0 | 0.0 | 0.06 | 0.37 | 0.33 | 93 | 1007.7 |
| 20260506140059 | 52 | 0 | 0.0 | 0.0 | 0.06 | 0.36 | 0.32 | 94 | 1007.7 |
| 20260506135557 | 52 | 0 | 0.0 | 0.0 | 0.05 | 0.35 | 0.31 | 93 | 1007.8 |
| 20260506135057 | 52 | 0 | 0.0 | 0.0 | 0.06 | 0.35 | 0.31 | 93 | 1007.8 |
| 20260506134620 | 51 | 0 | 0.0 | 0.0 | 0.06 | 0.34 | 0.30 | 93 | 1007.9 |
| 20260506134100 | 51 | 0 | 0.0 | 0.0 | 0.06 | 0.34 | 0.30 | 93 | 1007.9 |
| 20260506133556 | 51 | 0 | 0.0 | 0.0 | 0.05 | 0.33 | 0.29 | 93 | 1008.0 |
| 20260506133058 | 51 | 0 | 0.0 | 0.0 | 0.05 | 0.33 | 0.29 | 93 | 1008.0 |
| 20260506132556 | 52 | 0 | 0.0 | 0.0 | 0.05 | 0.33 | 0.29 | 93 | 1007.9 |
| 20260506132056 | 52 | 0 | 0.0 | 2.6 | 0.04 | 0.32 | 0.28 | 93 | 1007.9 |
| 20260506131609 | 51 | 0 | 0.0 | 2.6 | 0.04 | 0.32 | 0.28 | 93 | 1007.8 |
| 20260506131056 | 51 | 360 | 0.0 | 3.5 | 0.04 | 0.31 | 0.27 | 93 | 1008.0 |
| 20260506130556 | 51 | 9 | 0.9 | 3.5 | 0.04 | 0.31 | 0.27 | 93 | 1008.0 |
| 20260506130058 | 51 | 40 | 0.9 | 3.5 | 0.03 | 0.30 | 0.26 | 93 | 1008.0 |
| 20260506125555 | 51 | 321 | 0.9 | 2.6 | 0.03 | 0.30 | 0.26 | 93 | 1008.4 |
| 20260506125055 | 51 | 5 | 0.0 | 1.7 | 0.02 | 0.29 | 0.25 | 93 | 1008.4 |
| 20260506124558 | 51 | 0 | 0.0 | 2.6 | 0.01 | 0.28 | 0.24 | 93 | 1008.3 |
| 20260506124058 | 51 | 5 | 0.9 | 2.6 | 0.01 | 0.28 | 0.24 | 93 | 1008.3 |
| 20260506123558 | 51 | 311 | 0.0 | 2.6 | 0.01 | 0.28 | 0.24 | 93 | 1008.5 |
| 20260506123057 | 51 | 0 | 0.9 | 3.5 | 0.01 | 0.28 | 0.24 | 93 | 1008.4 |
| 20260506122556 | 51 | 0 | 0.9 | 3.5 | 0.01 | 0.28 | 0.24 | 93 | 1008.3 |
| 20260506122057 | 51 | 0 | 1.7 | 8.7 | 0.01 | 0.28 | 0.24 | 93 | 1008.2 |
| 20260506121605 | 51 | 222 | 5.2 | 8.7 | 0.01 | 0.28 | 0.24 | 93 | 1008.4 |
| 20260506121056 | 51 | 69 | 3.5 | 7.0 | 0.00 | 0.27 | 0.23 | 93 | 1007.7 |
| 20260506120556 | 51 | 350 | 0.0 | 5.2 | 0.00 | 0.27 | 0.23 | 93 | 1008.6 |
| 20260506115558 | 51 | 293 | 0.9 | 3.5 | 0.00 | 0.27 | 0.23 | 93 | 1008.6 |
| 20260506115055 | 51 | 69 | 0.9 | 3.5 | 0.00 | 0.27 | 0.23 | 93 | 1008.5 |
| 20260506114557 | 51 | 0 | 0.9 | 3.5 | 0.00 | 0.27 | 0.23 | 93 | 1008.8 |
| 20260506114059 | 51 | 42 | 0.0 | 4.3 | 0.00 | 0.27 | 0.23 | 93 | 1008.6 |
| 20260506113602 | 51 | 344 | 1.7 | 4.3 | 0.00 | 0.27 | 0.23 | 93 | 1008.5 |
| 20260506113101 | 51 | 20 | 1.7 | 4.3 | 0.00 | 0.27 | 0.23 | 93 | 1008.3 |
| 20260506112600 | 51 | 355 | 0.0 | 1.7 | 0.00 | 0.27 | 0.23 | 93 | 1008.4 |
| 20260506112100 | 51 | 0 | 0.0 | 1.7 | 0.00 | 0.27 | 0.23 | 93 | 1008.5 |
| 20260506111622 | 51 | 82 | 0.0 | 0.0 | 0.00 | 0.27 | 0.23 | 93 | 1008.4 |
| 20260506111058 | 51 | 0 | 0.0 | 0.0 | 0.00 | 0.27 | 0.23 | 93 | 1008.5 |
| 20260506110558 | 51 | 0 | 0.0 | 0.9 | 0.00 | 0.27 | 0.23 | 93 | 1008.4 |
| 20260506110109 | 51 | 0 | 0.0 | 0.9 | 0.00 | 0.27 | 0.23 | 93 | 1008.5 |
| 20260506105558 | 51 | 0 | 0.0 | 1.7 | 0.00 | 0.27 | 0.23 | 93 | 1008.4 |
| 20260506105058 | 51 | 0 | 0.0 | 2.6 | 0.00 | 0.27 | 0.23 | 93 | 1008.4 |
| 20260506104607 | 51 | 360 | 0.0 | 3.5 | 0.00 | 0.27 | 0.23 | 93 | 1008.4 |
| 20260506104058 | 51 | 24 | 0.9 | 3.5 | 0.00 | 0.27 | 0.23 | 93 | 1008.3 |
| 20260506103559 | 51 | 44 | 1.7 | 3.5 | 0.00 | 0.27 | 0.23 | 93 | 1008.2 |
| 20260506103106 | 51 | 16 | 0.9 | 3.5 | 0.00 | 0.27 | 0.23 | 93 | 1008.4 |
| 20260506102558 | 51 | 16 | 0.9 | 3.5 | 0.00 | 0.27 | 0.23 | 93 | 1008.4 |
| 20260506102059 | 51 | 29 | 1.7 | 3.5 | 0.00 | 0.27 | 0.23 | 93 | 1008.0 |
| 20260506101602 | 51 | 22 | 1.7 | 3.5 | 0.00 | 0.27 | 0.23 | 93 | 1008.1 |
| 20260506101057 | 51 | 15 | 0.9 | 3.5 | 0.00 | 0.27 | 0.23 | 93 | 1008.5 |
| 20260506100603 | 51 | 59 | 0.9 | 3.5 | 0.00 | 0.27 | 0.23 | 93 | 1008.2 |
| 20260506100106 | 50 | 52 | 0.9 | 2.6 | 0.00 | 0.27 | 0.23 | 93 | 1008.4 |
| 20260506095600 | 50 | 51 | 0.9 | 2.6 | 0.00 | 0.27 | 0.23 | 93 | 1008.6 |
| 20260506095100 | 50 | 51 | 0.9 | 1.7 | 0.00 | 0.27 | 0.23 | 93 | 1008.6 |
| 20260506094601 | 50 | 0 | 0.0 | 2.6 | 0.00 | 0.27 | 0.23 | 92 | 1008.5 |
| 20260506094100 | 50 | 51 | 0.9 | 2.6 | 0.00 | 0.27 | 0.23 | 92 | 1008.6 |
| 20260506093602 | 50 | 51 | 0.9 | 2.6 | 0.00 | 0.27 | 0.23 | 92 | 1008.6 |
| 20260506093100 | 50 | 51 | 0.9 | 3.5 | 0.00 | 0.27 | 0.23 | 92 | 1008.6 |
| 20260506092557 | 51 | 51 | 1.7 | 3.5 | 0.00 | 0.27 | 0.23 | 92 | 1008.7 |
| 20260506092102 | 51 | 54 | 1.7 | 3.5 | 0.00 | 0.27 | 0.23 | 92 | 1008.7 |
| 20260506091600 | 51 | 96 | 1.7 | 3.5 | 0.00 | 0.27 | 0.23 | 92 | 1008.6 |
| 20260506091100 | 51 | 55 | 1.7 | 4.3 | 0.00 | 0.27 | 0.23 | 92 | 1008.8 |
| 20260506090600 | 51 | 67 | 1.7 | 4.3 | 0.00 | 0.27 | 0.23 | 92 | 1008.9 |
| 20260506090059 | 51 | 88 | 1.7 | 7.0 | 0.00 | 0.27 | 0.23 | 92 | 1009.0 |
| 20260506085557 | 51 | 67 | 1.7 | 7.0 | 0.00 | 0.27 | 0.23 | 92 | 1008.9 |
| 20260506085100 | 51 | 95 | 0.9 | 3.5 | 0.00 | 0.27 | 0.23 | 92 | 1008.7 |
| 20260506084606 | 51 | 0 | 0.0 | 0.0 | 0.00 | 0.27 | 0.23 | 92 | 1008.7 |
| 20260506084100 | 51 | 0 | 0.0 | 0.0 | 0.00 | 0.27 | 0.23 | 92 | 1008.9 |
| 20260506083600 | 51 | 0 | 0.0 | 0.0 | 0.00 | 0.27 | 0.23 | 92 | 1009.0 |
| 20260506083121 | 51 | 0 | 0.0 | 0.0 | 0.00 | 0.27 | 0.23 | 92 | 1009.1 |
| 20260506082600 | 51 | 0 | 0.0 | 0.0 | 0.00 | 0.27 | 0.23 | 92 | 1009.3 |
| 20260506082057 | 51 | 0 | 0.0 | 0.0 | 0.00 | 0.27 | 0.23 | 92 | 1009.2 |
| 20260506081604 | 51 | 0 | 0.0 | 0.0 | 0.00 | 0.27 | 0.23 | 92 | 1009.0 |
| 20260506081100 | 51 | 0 | 0.0 | 0.0 | 0.00 | 0.27 | 0.23 | 92 | 1009.1 |
| 20260506080600 | 51 | 0 | 0.0 | 0.0 | 0.00 | 0.27 | 0.23 | 92 | 1009.2 |
| 20260506073059 | 51 | 0 | 0.0 | 0.0 | 0.00 | 0.27 | 0.23 | 91 | 1008.5 |
| 20260506072600 | 51 | 0 | 0.0 | 0.0 | 0.00 | 0.27 | 0.23 | 91 | 1008.7 |
| 20260506072100 | 51 | 0 | 0.0 | 0.0 | 0.00 | 0.27 | 0.23 | 91 | 1008.7 |
| 20260506071559 | 52 | 0 | 0.0 | 0.0 | 0.00 | 0.27 | 0.23 | 91 | 1008.7 |
| 20260506071059 | 52 | 0 | 0.0 | 0.0 | 0.01 | 0.27 | 0.23 | 91 | 1008.8 |
| 20260506070559 | 52 | 0 | 0.0 | 0.0 | 0.01 | 0.27 | 0.23 | 91 | 1008.7 |
| 20260506070124 | 52 | 0 | 0.0 | 1.7 | 0.01 | 0.27 | 0.23 | 90 | 1008.6 |
| 20260506062059 | 52 | 0 | 0.0 | 0.0 | 0.05 | 0.27 | 0.23 | 91 | 1009.0 |
| 20260506061600 | 52 | 0 | 0.0 | 0.9 | 0.09 | 0.27 | 0.23 | 90 | 1008.9 |
| 20260506061100 | 52 | 0 | 0.0 | 0.9 | 0.13 | 0.26 | 0.22 | 90 | 1009.0 |
| 20260506060556 | 52 | 0 | 0.0 | 1.7 | 0.15 | 0.26 | 0.22 | 90 | 1009.0 |
| 20260506051102 | 55 | 238 | 3.5 | 10.4 | 0.09 | 0.13 | 0.09 | 84 | 1010.0 |
| 20260506050559 | 56 | 224 | 2.6 | 6.1 | 0.07 | 0.11 | 0.07 | 84 | 1009.9 |
| 20260506050109 | 56 | 0 | 1.7 | 5.2 | 0.07 | 0.11 | 0.07 | 84 | 1009.0 |
| 20260506045059 | 56 | 319 | 0.0 | 6.1 | 0.06 | 0.10 | 0.06 | 84 | 1009.0 |
| 20260506044558 | 56 | 0 | 1.7 | 7.0 | 0.06 | 0.10 | 0.06 | 84 | 1009.2 |
| 20260506044059 | 57 | 0 | 2.6 | 7.0 | 0.04 | 0.08 | 0.04 | 84 | 1009.5 |
| 20260506043557 | 57 | 257 | 1.7 | 6.1 | 0.03 | 0.07 | 0.03 | 84 | 1009.3 |
| 20260506043059 | 57 | 250 | 0.9 | 6.1 | 0.02 | 0.06 | 0.02 | 84 | 1009.0 |
| 20260506042559 | 57 | 248 | 0.9 | 6.1 | 0.00 | 0.04 | 0.00 | 84 | 1009.1 |
| 20260506042100 | 57 | 0 | 0.0 | 0.0 | 0.00 | 0.04 | 0.00 | 83 | 1009.1 |
| 20260506041619 | 57 | 0 | 0.0 | 0.0 | 0.00 | 0.04 | 0.00 | 83 | 1008.9 |
| 20260506041059 | 57 | 0 | 0.0 | 0.0 | 0.00 | 0.04 | 0.00 | 82 | 1008.8 |
| 20260506040559 | 58 | 0 | 0.0 | 1.7 | 0.00 | 0.04 | 0.00 | 80 | 1008.7 |
| 20260506035556 | 58 | 211 | 0.0 | 4.3 | 0.00 | 0.04 | 0.04 | 79 | 1008.7 |
| 20260506035056 | 59 | 204 | 0.9 | 4.3 | 0.00 | 0.04 | 0.04 | 78 | 1008.7 |
| 20260506034601 | 59 | 213 | 1.7 | 4.3 | 0.00 | 0.04 | 0.04 | 78 | 1008.5 |
| 20260506034056 | 58 | 213 | 0.9 | 2.6 | 0.00 | 0.04 | 0.04 | 79 | 1008.5 |
| 20260506033559 | 58 | 196 | 0.0 | 2.6 | 0.00 | 0.04 | 0.04 | 79 | 1008.5 |
| 20260506033059 | 58 | 0 | 0.0 | 0.9 | 0.00 | 0.04 | 0.04 | 79 | 1008.2 |
| 20260506032600 | 58 | 0 | 0.0 | 1.7 | 0.00 | 0.04 | 0.04 | 79 | 1008.2 |
| 20260506032102 | 58 | 0 | 0.0 | 1.7 | 0.00 | 0.04 | 0.04 | 79 | 1008.2 |
| 20260506031602 | 58 | 185 | 0.0 | 0.9 | 0.00 | 0.04 | 0.04 | 80 | 1008.3 |
| 20260506031101 | 58 | 0 | 0.0 | 0.9 | 0.00 | 0.04 | 0.04 | 79 | 1008.1 |
| 20260506030600 | 58 | 0 | 0.0 | 0.9 | 0.00 | 0.04 | 0.04 | 79 | 1008.2 |
| 20260506030059 | 58 | 0 | 0.0 | 1.7 | 0.00 | 0.04 | 0.04 | 78 | 1008.1 |
| 20260506025603 | 58 | 0 | 0.0 | 1.7 | 0.00 | 0.04 | 0.04 | 78 | 1008.2 |
| 20260506025059 | 58 | 0 | 0.0 | 1.7 | 0.00 | 0.04 | 0.04 | 78 | 1007.9 |
| 20260506024607 | 58 | 0 | 0.0 | 0.0 | 0.00 | 0.04 | 0.04 | 78 | 1007.9 |
| 20260506024057 | 58 | 0 | 0.0 | 0.0 | 0.00 | 0.04 | 0.04 | 79 | 1008.1 |
| 20260506023558 | 58 | 0 | 0.0 | 0.0 | 0.00 | 0.04 | 0.04 | 79 | 1008.2 |
| 20260506023057 | 58 | 0 | 0.0 | 0.0 | 0.00 | 0.04 | 0.04 | 79 | 1008.2 |
| 20260506022559 | 58 | 0 | 0.0 | 0.0 | 0.00 | 0.04 | 0.04 | 80 | 1008.2 |
| 20260506022057 | 58 | 0 | 0.0 | 0.0 | 0.00 | 0.04 | 0.04 | 80 | 1008.4 |
| 20260506021601 | 57 | 0 | 0.0 | 0.0 | 0.00 | 0.04 | 0.04 | 81 | 1008.3 |
| 20260506021057 | 57 | 0 | 0.0 | 0.0 | 0.00 | 0.04 | 0.04 | 81 | 1008.5 |
| 20260506020559 | 57 | 0 | 0.0 | 0.0 | 0.00 | 0.04 | 0.04 | 81 | 1008.4 |
| 20260506020111 | 57 | 0 | 0.0 | 0.0 | 0.00 | 0.04 | 0.04 | 80 | 1008.3 |
| 20260506015557 | 57 | 0 | 0.0 | 0.0 | 0.00 | 0.04 | 0.04 | 80 | 1008.0 |
| 20260506015058 | 57 | 0 | 0.0 | 0.0 | 0.00 | 0.04 | 0.04 | 80 | 1007.9 |
| 20260506014614 | 57 | 0 | 0.0 | 3.5 | 0.00 | 0.04 | 0.04 | 80 | 1007.8 |
| 20260506014100 | 57 | 0 | 0.0 | 3.5 | 0.00 | 0.04 | 0.04 | 80 | 1007.7 |
| 20260506013600 | 57 | 0 | 0.0 | 0.9 | 0.00 | 0.04 | 0.04 | 80 | 1007.5 |
| 20260506013102 | 57 | 0 | 0.0 | 1.7 | 0.00 | 0.04 | 0.04 | 79 | 1007.6 |
| 20260506012600 | 57 | 0 | 0.0 | 1.7 | 0.00 | 0.04 | 0.04 | 79 | 1007.5 |
| 20260506012056 | 57 | 0 | 0.0 | 2.6 | 0.00 | 0.04 | 0.04 | 79 | 1007.6 |
| 20260506011628 | 57 | 102 | 0.0 | 3.5 | 0.00 | 0.04 | 0.04 | 79 | 1007.5 |
| 20260506011057 | 58 | 102 | 0.9 | 3.5 | 0.00 | 0.04 | 0.04 | 79 | 1007.5 |
| 20260506010601 | 58 | 102 | 0.9 | 2.6 | 0.00 | 0.04 | 0.04 | 79 | 1007.3 |
| 20260506010059 | 58 | 77 | 0.0 | 2.6 | 0.00 | 0.04 | 0.04 | 79 | 1007.3 |
| 20260506005556 | 58 | 77 | 0.9 | 3.5 | 0.00 | 0.04 | 0.04 | 79 | 1007.3 |
| 20260506005056 | 58 | 77 | 0.9 | 3.5 | 0.00 | 0.04 | 0.04 | 79 | 1007.3 |
| 20260506004607 | 58 | 77 | 1.7 | 2.6 | 0.00 | 0.04 | 0.04 | 80 | 1007.2 |
| 20260506004059 | 58 | 77 | 0.9 | 2.6 | 0.00 | 0.04 | 0.04 | 80 | 1007.3 |
| 20260506003559 | 58 | 77 | 0.9 | 2.6 | 0.00 | 0.04 | 0.04 | 80 | 1007.3 |
| 20260506003057 | 58 | 77 | 0.9 | 2.6 | 0.00 | 0.04 | 0.04 | 79 | 1007.2 |
| 20260506002601 | 58 | 77 | 0.9 | 3.5 | 0.00 | 0.04 | 0.04 | 80 | 1007.3 |
| 20260506002100 | 59 | 77 | 0.9 | 3.5 | 0.00 | 0.04 | 0.04 | 79 | 1007.1 |
| 20260506001605 | 59 | 76 | 1.7 | 3.5 | 0.00 | 0.04 | 0.04 | 78 | 1007.1 |
| 20260506001059 | 59 | 92 | 1.7 | 3.5 | 0.00 | 0.04 | 0.04 | 78 | 1007.1 |
| 20260506000602 | 59 | 100 | 0.9 | 3.5 | 0.00 | 0.04 | 0.04 | 77 | 1007.3 |
| 20260506000122 | 59 | 102 | 0.0 | 2.6 | 0.00 | 0.04 | 0.04 | 77 | 1007.4 |
| 20260505235600 | 59 | 95 | 0.0 | 2.6 | 0.00 | 0.04 | 0.04 | 77 | 1007.5 |
| 20260505235057 | 60 | 95 | 0.0 | 2.6 | 0.00 | 0.04 | 0.04 | 76 | 1007.1 |
| 20260505234601 | 60 | 0 | 0.0 | 2.6 | 0.00 | 0.04 | 0.04 | 76 | 1007.3 |
| 20260505234057 | 59 | 0 | 0.0 | 2.6 | 0.00 | 0.04 | 0.04 | 78 | 1007.3 |
| 20260505233556 | 59 | 0 | 0.0 | 3.5 | 0.00 | 0.04 | 0.04 | 77 | 1007.3 |
| 20260505233102 | 60 | 0 | 0.0 | 3.5 | 0.00 | 0.04 | 0.04 | 77 | 1007.3 |
| 20260505232557 | 60 | 0 | 0.0 | 1.7 | 0.00 | 0.04 | 0.04 | 77 | 1007.2 |
| 20260505232101 | 60 | 0 | 0.0 | 1.7 | 0.00 | 0.04 | 0.04 | 77 | 1007.2 |
| 20260505231612 | 59 | 0 | 0.0 | 1.7 | 0.00 | 0.04 | 0.04 | 79 | 1007.1 |
| 20260505231059 | 59 | 0 | 0.0 | 2.6 | 0.00 | 0.04 | 0.04 | 79 | 1007.0 |
| 20260505230559 | 60 | 0 | 0.0 | 2.6 | 0.00 | 0.04 | 0.04 | 79 | 1007.0 |
| 20260505230108 | 60 | 107 | 0.9 | 2.6 | 0.00 | 0.04 | 0.04 | 79 | 1006.8 |
| 20260505225559 | 60 | 107 | 0.9 | 2.6 | 0.00 | 0.04 | 0.04 | 79 | 1006.8 |
| 20260505225059 | 60 | 0 | 0.9 | 2.6 | 0.00 | 0.04 | 0.04 | 78 | 1006.9 |
| 20260505224559 | 61 | 0 | 0.0 | 1.7 | 0.00 | 0.04 | 0.04 | 76 | 1006.9 |
| 20260505224058 | 61 | 255 | 0.0 | 2.6 | 0.00 | 0.04 | 0.04 | 75 | 1006.7 |
| 20260505223600 | 62 | 0 | 0.0 | 2.6 | 0.00 | 0.04 | 0.04 | 74 | 1006.9 |
| 20260505223056 | 62 | 235 | 0.9 | 8.7 | 0.00 | 0.04 | 0.04 | 72 | 1006.7 |
| 20260505222600 | 62 | 236 | 3.5 | 8.7 | 0.00 | 0.04 | 0.04 | 71 | 1006.8 |
| 20260505222057 | 62 | 217 | 0.9 | 11.3 | 0.00 | 0.04 | 0.04 | 71 | 1006.8 |
| 20260505221603 | 62 | 257 | 1.7 | 11.3 | 0.00 | 0.04 | 0.04 | 72 | 1006.6 |
| 20260505221059 | 62 | 330 | 5.2 | 11.3 | 0.00 | 0.04 | 0.04 | 72 | 1006.6 |
| 20260505220602 | 61 | 210 | 3.5 | 10.4 | 0.00 | 0.04 | 0.04 | 76 | 1006.6 |
| 20260505220058 | 61 | 232 | 0.9 | 7.0 | 0.00 | 0.04 | 0.04 | 80 | 1006.6 |
| 20260505215556 | 61 | 0 | 0.9 | 7.8 | 0.00 | 0.04 | 0.04 | 81 | 1006.7 |
| 20260505215057 | 61 | 240 | 3.5 | 7.8 | 0.00 | 0.04 | 0.04 | 80 | 1007.0 |
| 20260505214557 | 61 | 184 | 2.6 | 6.1 | 0.00 | 0.04 | 0.04 | 79 | 1006.8 |
| 20260505214100 | 61 | 249 | 0.0 | 2.6 | 0.00 | 0.04 | 0.04 | 80 | 1006.6 |
| 20260505213558 | 62 | 0 | 0.0 | 3.5 | 0.00 | 0.04 | 0.04 | 78 | 1006.1 |
| 20260505213059 | 62 | 111 | 0.9 | 3.5 | 0.00 | 0.04 | 0.04 | 79 | 1005.9 |
| 20260505212601 | 63 | 151 | 0.0 | 9.6 | 0.00 | 0.04 | 0.04 | 80 | 1006.0 |